Content
SEND FEEDBACK

Daily
Averages
Monthly
Summary
United States of America

WOODVILLE, FLORIDA


Home > North America > United States > Florida
Elevation: 68 feet     Latitude: 30 23N     Longitude: 084 22W

WEATHER
 
SELECT A DAY
Number of Records: 210,884;   Date Range: 1/1/95 - 7/20/14
 
SHARE

PRINT THIS DATA

[ ← Previous Day ]
WEATHER ALMANAC - FEBRUARY 13, 2013
[ Next Day → ]
[ °C ]   °F
Weather ElementAverageHighLow
Temperature68.3 °F75 °F (11:53 am)51.1 °F (10:53 pm)
Dewpoint57.6 °F69.1 °F (3:53 am)41 °F (4:53 pm)
Humidity70.7 %91 % (3:53 am)39 % (4:53 pm)
Barometer29.88 in30.01 in (11:53 pm)29.79 in (4:53 am)
Wind Speed9.4 mph18.4 mph (9:32 pm)
Wind Gust24.2 mph (9:32 pm)
Weather ElementAverage
Visibility9.7 mi
Wind DirectionWSW (249 °)

Weather ElementTotal
Precipitation0.05 in
Heating Degree Days2 (Base 65)
Growing Degree Days13.1 (Base 50)
Averaged from 30 records on February 13, 2013
WEATHER CONDITIONS BREAKOUT
WIND DIRECTION BREAKOUT
WEATHER BY HOUR - FEBRUARY 13, 2013
[ °C ]   °F
Local TimeTemperatureDewpointHumidityBarometerVisibilityWind DirectionWind SpeedGust SpeedPrecipitationEventsConditions
1:48 AM73.4 °F68.0 °F83 %29.82 in10.0 miSW (220°)16.1 mph21.9 mph0.01 inMostly Cloudy
1:53 AM73.0 °F68.0 °F84 %29.82 in10.0 miSW (220°)15.0 mph21.9 mph0.01 inMostly Cloudy
2:53 AM73.0 °F68.0 °F84 %29.81 in10.0 miSW (220°)12.7 mphOvercast
3:53 AM72.0 °F69.1 °F91 %29.81 in10.0 miSW (220°)8.1 mph0.02 inRainLight Rain
4:53 AM73.0 °F68.0 °F84 %29.79 in10.0 miSW (220°)9.2 mph0.00 inOvercast
5:53 AM73.0 °F68.0 °F84 %29.80 in10.0 miSW (230°)9.2 mph0.00 inOvercast
6:35 AM73.4 °F68.0 °F83 %29.82 in10.0 miWSW (250°)15.0 mph20.7 mphOvercast
6:48 AM73.4 °F68.0 °F83 %29.82 in10.0 miWSW (240°)12.7 mphOvercast
6:53 AM73.0 °F66.9 °F81 %29.82 in10.0 miWSW (250°)13.8 mph19.6 mphOvercast
7:53 AM72.0 °F66.0 °F81 %29.85 in9.0 miWSW (250°)8.1 mphPartly Cloudy
8:08 AM71.6 °F66.2 °F83 %29.85 in9.0 miWSW (250°)9.2 mphMostly Cloudy
8:41 AM71.6 °F66.2 °F83 %29.86 in8.0 miWest (260°)5.8 mphMostly Cloudy
8:51 AM71.6 °F66.2 °F83 %29.86 in8.0 miWest (270°)5.8 mphMostly Cloudy
8:53 AM72.0 °F66.9 °F84 %29.87 in8.0 miWest (260°)6.9 mphMostly Cloudy
9:53 AM73.0 °F64.9 °F76 %29.89 in10.0 miWest (280°)10.4 mphMostly Cloudy
10:53 AM73.9 °F62.1 °F66 %29.88 in10.0 miWest (280°)8.1 mphScattered Clouds
11:53 AM75.0 °F60.1 °F60 %29.88 in10.0 miWest (280°)11.5 mphScattered Clouds
12:53 PM73.0 °F53.1 °F49 %29.85 in10.0 miWSW (240°)6.9 mphOvercast
1:53 PM73.0 °F48.9 °F42 %29.86 in10.0 miWest (260°)8.1 mphOvercast
2:53 PM70.0 °F48.0 °F46 %29.86 in10.0 miWest (270°)9.2 mphOvercast
3:53 PM69.1 °F45.0 °F42 %29.87 in10.0 miWNW (290°)8.1 mphOvercast
4:53 PM66.9 °F41.0 °F39 %29.89 in10.0 miWest (280°)11.5 mphOvercast
5:53 PM66.0 °F44.1 °F45 %29.90 in10.0 miCalmOvercast
6:53 PM64.9 °F46.0 °F50 %29.92 in10.0 miWNW (290°)8.1 mphOvercast
7:53 PM62.1 °F46.0 °F56 %29.93 in10.0 miNW (320°)6.9 mphOvercast
8:53 PM57.0 °F48.0 °F72 %29.97 in10.0 miNW (310°)12.7 mph23.0 mphOvercast
9:32 PM53.6 °F44.6 °F72 %29.98 in10.0 miNNW (330°)18.4 mph24.2 mphOvercast
9:53 PM52.0 °F45.0 °F77 %29.99 in10.0 miNNW (330°)9.2 mph0.00 inRainLight Rain
10:53 PM51.1 °F44.1 °F77 %29.99 in10.0 miNorth (350°)5.8 mph0.00 inOvercast
11:53 PM51.1 °F45.0 °F80 %30.01 in10.0 miCalm0.01 inRainLight Rain
Hourly data recorded from KTLH, located miles away from Woodville, Florida







STORIES FROM OUR PARTNERS